TimeEST,TemperatureF,Dew PointF,Humidity,Sea Level PressureIn,VisibilityMPH,Wind Direction,Wind SpeedMPH,Gust SpeedMPH,PrecipitationIn,Events,Conditions,WindDirDegrees,DateUTC
1:53 AM,30.9,25.0,79,30.23,10.0,SSW,4.6,-,N/A,,Clear,210,2012-12-14 06:53:00
2:53 AM,30.9,24.1,76,30.24,10.0,SSW,4.6,-,N/A,,Clear,210,2012-12-14 07:53:00
3:53 AM,30.9,24.1,76,30.24,10.0,SSW,4.6,-,N/A,,Clear,210,2012-12-14 08:53:00
4:53 AM,30.0,23.0,75,30.25,10.0,SSW,3.5,-,N/A,,Clear,200,2012-12-14 09:53:00
5:53 AM,28.9,23.0,78,30.26,10.0,SSW,3.5,-,N/A,,Clear,200,2012-12-14 10:53:00
7:53 AM,26.1,21.9,84,30.25,10.0,South,3.5,-,N/A,,Clear,190,2012-12-14 12:53:00
8:53 AM,28.9,24.1,82,30.26,10.0,Calm,Calm,-,N/A,,Clear,0,2012-12-14 13:53:00
9:53 AM,36.0,26.1,67,30.27,10.0,SSW,6.9,-,N/A,,Clear,210,2012-12-14 14:53:00
10:53 AM,39.9,26.1,58,30.29,10.0,SW,6.9,-,N/A,,Clear,220,2012-12-14 15:53:00
11:53 AM,43.0,28.0,56,30.27,10.0,Variable,3.5,-,N/A,,Clear,0,2012-12-14 16:53:00
12:53 PM,44.1,28.9,55,30.25,10.0,South,5.8,-,N/A,,Clear,180,2012-12-14 17:53:00
1:53 PM,46.0,28.9,51,30.21,10.0,Calm,Calm,-,N/A,,Clear,0,2012-12-14 18:53:00
2:53 PM,48.0,30.0,50,30.19,10.0,SSW,6.9,-,N/A,,Clear,200,2012-12-14 19:53:00
3:53 PM,46.9,30.0,52,30.20,10.0,Calm,Calm,-,N/A,,Clear,0,2012-12-14 20:53:00
4:53 PM,44.1,30.0,58,30.19,10.0,Calm,Calm,-,N/A,,Clear,0,2012-12-14 21:53:00
5:53 PM,37.9,28.0,68,30.20,10.0,Calm,Calm,-,N/A,,Clear,0,2012-12-14 22:53:00
6:53 PM,35.1,28.0,76,30.22,10.0,Calm,Calm,-,N/A,,Clear,0,2012-12-14 23:53:00
7:53 PM,35.1,28.0,76,30.22,10.0,Calm,Calm,-,N/A,,Clear,0,2012-12-15 00:53:00
8:53 PM,32.0,27.0,82,30.22,10.0,Calm,Calm,-,N/A,,Clear,0,2012-12-15 01:53:00
9:53 PM,33.1,30.0,89,30.20,10.0,Calm,Calm,-,N/A,,Clear,0,2012-12-15 02:53:00
10:53 PM,32.0,28.0,85,30.19,10.0,Calm,Calm,-,N/A,,Clear,0,2012-12-15 03:53:00
11:53 PM,33.1,28.0,82,30.18,10.0,Calm,Calm,-,N/A,,Clear,0,2012-12-15 04:53:00